Regional Weather Roundup
Issued by NWS

Home | Current Version | Previous Version | Text Only | Print | Product List | Glossary On
Versions: 1 2 3 4 5 6 7 8 9 10 11 12 13 14 15 16 17 18 19 20 21 22 23 24 25 26 27 28 29 30 31 32 33 34 35 36 37 38 39 40 41 42 43 44 45 46 47 48 49 50
000
ASCA44 KEWX 201520
RWRMX

LATIN AMERICA AND CARIBBEAN REGIONAL WEATHER ROUNDUP
NATIONAL WEATHER SERVICE AUSTIN/SAN ANTONIO TX
1000 AM CDT FRI OCT 20 2017

NOTE: "FAIR" INDICATED FEW OR NO CLOUDS BELOW 12,000 FEET WITH NO
SIGNIFICANT WEATHER AND/OR OBSTRUCTIONS TO VISIBILITY.

BAJA CALIFORNIA

CITY           SKY/WX    TMP DP  RH WIND       PRES   REMARKS
LORETO         SUNNY     84  66  54 CALM      29.80R
LA PAZ         SUNNY     75  64  69 S10       29.89R
MEXICALI       SUNNY     73  54  49 NW26      29.80R
S.J. DEL CABO  SUNNY     79  55  44 CALM      29.88R

NORTHWESTERN MEXICO

CITY           SKY/WX    TMP DP  RH WIND       PRES   REMARKS
CULIACAN       MOSUNNY   81  73  78 CALM      29.89R
DURANGO        SUNNY     59  52  77 SW5       30.29R
GUAYMAS        SUNNY     75  66  73 CALM      29.79R
HERMOSILLO     SUNNY     79  48  34 E6        29.85R
CD. JUAREZ     PTSUNNY   59  50  72 CALM      30.05R
LOS MOCHIS     SUNNY     77  64  65 E12       29.88  VSB 0
OBREGON        SUNNY     81  48  32 E12       29.82R

NORTHEASTERN MEXICO

CITY           SKY/WX    TMP DP  RH WIND       PRES   REMARKS
CHIHUAHUA      PTSUNNY   61  43  51 CALM      30.12R
MATAMOROS      MOSUNNY   81  75  83 E5        30.01R
MONCLOVA       PTSUNNY   70  59  68 CALM      30.06R
MONTERREY      CLOUDY    70  66  88 W2        30.04R
NUEVO LAREDO   CLOUDY    72  70  94 SE7       30.04R
PIEDRAS NEGRAS CLOUDY    72  66  83 MISG      30.05S
REYNOSA        PTSUNNY   75  70  83 E6        30.01R
SALTILLO       SUNNY     64  48  55 SE7       30.21R
TORREON        PTSUNNY   70  46  43 NE3       30.11R
CD. VICTORIA   SUNNY     68  68 100 MISG      30.01R

WESTERN MEXICO

CITY           SKY/WX    TMP DP  RH WIND       PRES   REMARKS
AGUASCALIENTES MOSUNNY   61  48  63 N5        30.32R
COLIMA         MOSUNNY   77  70  78 CALM      30.03S
DEL BAJIO      SUNNY     64  50  59 CALM      30.35R
GUADALAJARA    SUNNY     68  59  73 CALM      30.22S
MANZANILLO     SUNNY     86  79  79 CALM      29.89R HX  99
MAZATLAN       SUNNY     82  81  94 NE7       29.90  HX  95
P. VALLARTA    SUNNY     81  75  83 NE6       29.91R
URUAPAN        SUNNY     68  57  68 CALM      30.21R
ZACATECAS      MOSUNNY   64  52  63 SW3       30.33R

CENTRAL MEXICO

CITY           SKY/WX    TMP DP  RH WIND       PRES   REMARKS
CUERNAVACA     MOSUNNY   72  57  60 S6        30.16S
MEXICO CITY    SUNNY     66  48  52 E3        30.38S
MORELIA        SUNNY     64  54  68 CALM      30.29S
POZA RICA      PTSUNNY  N/A N/A N/A CALM      30.05R
PUEBLA         MOSUNNY   59  52  77 N7        30.36
QUERETARO      SUNNY     57  52  82 E5        30.35S
S. LUIS POTOSI FOG       52  52 100 W3        30.28S VSB 0
TAMPICO        MOSUNNY   77  73  88 CALM      30.01R
TOLUCA         FOG       52  50  93 W3        30.43R VSB 1

SOUTHERN MEXICO

CITY           SKY/WX    TMP DP  RH WIND       PRES   REMARKS
ACAPULCO       MOSUNNY   82  73  74 N5        29.86S
B. DE HUATULCO SUNNY    N/A N/A N/A CALM      29.92R
OAXACA         MOSUNNY   64  55  72 N8        30.26
P. ESCONDIDO   MOSUNNY   82  73  74 E6        29.96R
VERACRUZ       MOSUNNY  N/A N/A N/A N3        30.00R
ZIHUATANEJO    MOSUNNY   84  77  79 CALM      29.88R HX  94

YUCATAN PENINSULA

CITY           SKY/WX    TMP DP  RH WIND       PRES   REMARKS
CAMPECHE       CLOUDY    79  77  94 E8        29.94R
CANCUN         PTSUNNY   86  77  74 E9        29.98R HX  97
CHETUMAL       CLOUDY    79  75  89 CALM      29.97S
CD. DEL CARMEN PTSUNNY  N/A N/A N/A S9        29.95S
COZUMEL        PTSUNNY   84  79  84 CALM      29.96R HX  96
MERIDA         PTSUNNY   82  77  83 E7        29.98R HX  91
MINATITLAN     MOSUNNY   79  75  89 S7        29.95R
TAPACHULA      MOSUNNY   86  77  74 CALM      29.86R HX  97
TUX. GUTIERREZ MOSUNNY   79  70  73 NW3       30.00R
VILLAHERMOSA   PTSUNNY   81  81 100 E5        29.97S FOG     HX  91

CENTRAL AMERICA

CITY           SKY/WX    TMP DP  RH WIND       PRES   REMARKS
BELIZE CITY    LGT RAIN  77  77 100 SW2       29.98
MANAGUA        MOSUNNY   86  73  66 E9        29.83S HX  93

CARIBBEAN

CITY           SKY/WX    TMP DP  RH WIND       PRES   REMARKS
ARUBA          MOSUNNY   91  77  62 E25G38    29.83S HX 105
CURACAO        MOSUNNY   90  73  58 E22       29.89S HX  98
KINGSTON       PTSUNNY   79  75  89 VRB2      29.92S
NASSAU         MOSUNNY   86  77  74 NE13      30.04R HX  97
SAN JUAN       MOSUNNY   86  75  70 E18       30.01F HX  95
SANTO DOMINGO  MOSUNNY   86  77  74 E9        30.00  HX  97
ST. CROIX      MOSUNNY   86  75  70 SE13      30.02F HX  95
ST. KITTS      MOSUNNY   86  75  70 E13       30.00F HX  95
ST. MAARTEN    PTSUNNY   86  72  62 E10       30.03S HX  92
ST. THOMAS     MOSUNNY   86  68  54 SE12G18   30.01F

$$




USA.gov is the U.S. government's official web portal to all federal, state and local government web resources and services.